SCP
0 0 0 0 0 0 1 1 1 1 3 4 5 6 7 11 13 12 12 13 13 11 9 7 5 5 7 8 9 10 11 9 8 10 13 14 12 9 9 9 9 8 8 8
1 0 0 0 0 0 1 1 1 2 3 4 5 6 8 11 12 10 10 11 12 11 9 6 5 5 6 8 9 9 9 9 9 11 14 15 13 10 10 10 10 9 8 8
1 0 0 0 1 1 1 1 1 2 4 5 5 5 8 10 9 7 7 8 10 11 8 6 5 5 6 7 8 8 7 8 9 10 13 14 13 11 10 11 11 10 8 7
1 0 0 1 1 1 1 2 2 3 4 4 4 5 7 7 6 5 5 6 9 10 8 6 5 5 6 6 6 6 6 7 8 9 11 12 12 11 10 10 11 11 9 8
1 0 0 1 2 2 1 2 3 4 4 3 3 5 6 6 5 5 5 6 8 10 8 6 5 5 6 5 5 5 6 6 8 9 10 11 11 11 11 10 10 10 10 10
1 0 1 1 1 1 1 2 3 3 3 2 3 5 7 7 6 5 5 6 8 9 8 6 5 5 5 5 5 5 6 7 8 10 11 11 12 13 12 11 10 10 9 9
1 1 1 1 1 1 1 2 3 2 2 2 4 6 8 8 7 6 6 6 8 8 8 6 6 6 6 6 6 7 8 10 11 12 12 12 12 13 11 10 10 9 9 9
1 1 1 1 1 1 2 3 2 2 3 4 6 9 9 8 7 7 7 7 8 8 8 7 6 6 7 7 7 8 10 13 15 15 13 12 12 11 10 9 8 8 8 8
1 2 2 2 2 2 2 2 2 3 6 9 10 10 9 8 7 7 8 8 8 8 7 6 6 6 6 6 7 9 11 14 17 17 15 13 12 11 10 8 6 5 6 6
2 2 2 2 2 1 1 2 3 6 10 12 11 10 9 8 8 8 8 8 7 6 6 5 5 5 5 5 6 9 11 13 15 17 16 14 13 12 11 7 5 4 4 5
1 2 2 2 2 2 2 3 5 9 11 11 10 9 8 8 8 8 8 6 5 6 5 5 6 5 5 5 6 8 9 9 11 14 15 14 13 12 10 6 4 3 3 4
2 2 2 2 2 3 4 5 7 9 9 9 9 9 8 8 8 7 6 5 5 6 6 6 7 6 5 5 6 7 7 7 7 10 13 13 13 11 7 4 2 1 2 2
2 3 3 3 2 3 6 7 7 7 7 7 9 9 8 8 8 6 5 5 6 6 7 7 6 6 6 5 6 6 6 5 5 7 9 11 11 9 5 2 1 1 0 0
3 3 3 3 3 3 6 8 7 6 6 8 9 10 9 9 8 7 6 6 6 7 6 6 5 5 4 4 5 5 5 4 4 5 7 8 9 8 6 3 2 1 1 0
3 3 3 3 3 4 7 7 6 6 7 9 12 12 11 10 9 8 7 7 6 6 5 5 5 4 3 3 3 4 4 3 3 3 4 6 6 7 5 3 2 2 1 1
3 3 3 3 4 6 8 7 6 6 8 12 14 14 13 11 10 8 7 7 6 6 5 5 4 3 2 2 2 3 3 3 2 2 3 3 4 4 4 3 2 2 1 1
3 3 4 4 4 6 8 7 7 8 11 14 15 15 13 12 10 8 6 6 6 5 5 5 4 3 2 2 2 2 2 2 2 1 2 2 2 2 2 2 2 1 1 1
3 4 4 4 4 5 7 7 8 9 11 13 15 16 14 11 9 7 6 5 5 5 5 4 3 2 2 2 2 2 2 1 1 1 1 1 1 1 1 1 1 1 1 1
4 4 4 4 4 4 5 6 7 8 9 10 13 15 13 10 7 6 5 4 3 3 4 3 2 2 3 3 2 1 1 1 1 1 1 1 1 1 1 1 1 1 1 1
5 5 4 4 4 4 5 6 8 9 9 8 9 10 8 6 5 4 4 3 3 3 3 3 2 2 3 3 2 1 1 1 1 1 1 1 1 1 1 1 1 1 1 1
4 4 4 3 3 4 6 8 11 12 11 8 6 5 5 4 4 3 2 2 2 2 2 2 2 2 2 2 1 1 1 1 1 1 1 1 1 1 1 1 1 1 1 1
3 3 3 3 2 2 4 9 14 15 11 8 5 5 4 4 3 2 1 1 2 1 1 1 1 1 1 1 1 2 2 1 1 1 1 1 1 1 1 1 1 1 1 1
2 2 3 2 2 1 2 6 11 13 10 7 5 4 4 3 2 1 1 1 1 1 1 1 0 0 0 1 1 2 2 1 1 1 1 1 1 1 1 1 1 1 1 1
2 2 2 3 2 1 2 4 8 10 8 6 5 4 3 2 1 1 0 1 0 0 1 1 0 0 0 1 1 1 1 1 1 1 1 1 1 1 1 1 1 1 1 1
1 1 2 2 2 2 2 3 6 7 6 5 4 3 2 1 1 0 0 0 0 0 1 1 0 0 0 1 1 1 1 1 1 1 1 1 1 1 1 1 1 1 1 1
1 1 1 2 2 2 2 3 4 4 3 3 3 2 1 1 0 0 0 0 0 0 0 0 0 0 0 0 0 0 0 0 0 0 0 0 0 0 1 1 1 1 1 1
1 2 2 2 2 1 2 3 3 2 2 1 2 1 1 0 0 0 0 0 0 0 0 0 0 0 0 0 0 0 0 0 0 0 0 0 0 0 0 0 0 1 1 1
Wind_Speed
10 8 9 9 10 9 9 9 8 6 3 3 2 3 3 2 4 4 4 5 5 4 4 4 3 2 2 2 2 2 2 2 2 2 2 2 2 2 1 2 2 2 2 2
11 11 11 10 11 10 9 9 8 6 3 3 3 4 4 4 3 3 4 5 5 3 3 2 2 1 1 1 2 2 2 1 1 1 2 2 2 2 2 2 2 2 2 2
10 10 11 12 11 10 8 8 7 4 1 2 2 4 5 5 4 4 4 4 4 3 1 1 1 1 0 1 2 1 1 1 1 1 1 2 3 2 3 2 2 1 2 2
9 9 13 8 5 6 6 7 4 2 1 3 2 3 4 6 5 4 3 3 3 2 1 1 1 1 0 1 1 1 1 0 0 1 1 2 2 2 2 2 2 2 2 2
8 10 11 9 6 4 5 3 4 2 3 4 3 3 5 6 6 5 4 4 3 1 1 2 3 2 2 0 1 1 0 1 1 1 2 2 3 2 2 2 2 3 2 2
9 11 12 6 3 2 4 3 2 3 3 3 2 0 3 5 6 5 5 4 3 2 2 3 3 2 1 0 0 0 1 1 1 2 3 3 3 2 2 2 2 2 2 2
11 12 8 2 1 3 5 1 5 5 3 3 4 3 4 6 5 5 4 3 3 3 2 2 2 2 1 1 1 1 2 2 2 2 2 2 1 1 1 2 2 3 3 3
9 11 5 5 3 2 4 4 4 3 3 3 5 5 5 5 4 4 4 3 3 3 3 3 3 2 1 1 2 1 1 1 2 2 2 2 1 2 2 2 3 3 2 2
3 2 3 5 5 4 4 3 3 3 3 3 2 4 5 4 3 3 3 3 3 3 3 3 3 2 1 1 1 2 1 1 1 2 2 2 1 2 2 2 2 2 2 2
4 2 2 3 4 4 3 2 3 3 3 2 2 4 3 3 3 3 3 2 2 3 2 2 2 1 1 1 2 2 2 2 2 2 1 1 1 2 2 2 2 2 2 2
3 4 4 3 4 2 2 3 3 4 4 3 3 3 3 2 2 2 2 2 2 2 2 2 2 1 1 2 2 2 2 2 2 2 2 1 1 2 2 1 1 1 2 2
3 2 5 4 4 5 4 3 3 3 4 4 3 3 2 2 3 2 1 2 2 2 2 2 2 2 2 2 2 2 3 3 2 2 2 2 1 1 2 1 1 1 1 1
4 4 5 4 5 6 5 3 2 2 1 1 1 1 1 2 2 1 1 1 1 1 1 1 1 1 1 2 2 3 3 3 3 3 2 2 2 1 1 1 1 1 1 1
5 6 5 5 4 5 5 4 3 2 1 1 1 1 1 1 1 1 1 1 2 1 1 0 1 1 2 1 2 3 4 3 3 3 3 3 2 2 1 1 1 1 2 3
3 5 5 4 5 4 4 3 3 3 2 1 1 1 1 1 1 1 0 1 1 1 0 1 1 1 1 1 2 3 3 3 3 3 3 3 3 2 2 1 1 1 1 0
4 5 4 4 5 5 5 4 4 3 2 2 2 1 1 1 1 1 1 0 0 1 0 1 2 2 1 2 2 2 2 2 3 3 3 3 3 2 2 2 1 1 1 1
5 4 4 5 6 5 5 4 3 3 3 3 2 1 1 1 1 1 1 1 1 1 0 1 1 1 1 1 2 3 2 1 2 3 3 3 3 3 2 2 2 1 1 1
5 5 5 5 6 6 5 3 2 3 3 3 1 1 1 1 1 2 2 2 1 2 1 1 1 1 1 1 2 3 2 2 2 2 2 3 3 3 2 2 2 2 1 1
5 5 5 5 4 5 5 3 2 2 3 2 2 1 0 1 1 1 2 2 1 1 1 2 1 1 2 2 2 2 2 2 2 2 2 2 2 2 2 2 2 1 1 2
3 4 3 3 3 4 3 2 2 2 2 1 1 1 1 1 1 1 2 2 2 2 1 1 1 2 2 2 2 2 2 2 2 2 2 2 2 2 2 2 2 2 2 2
2 2 1 1 2 2 2 2 2 2 1 1 1 1 1 1 1 1 1 1 2 2 1 1 1 1 2 2 3 2 2 2 2 2 2 2 2 2 2 2 2 2 2 2
2 1 1 2 2 2 3 2 2 2 1 1 1 1 1 2 1 1 1 1 1 1 1 1 1 2 3 3 2 2 2 2 2 2 2 2 3 3 3 3 3 3 3 2
2 2 1 1 2 1 2 3 2 1 1 1 1 2 2 1 1 1 1 1 1 1 1 2 2 2 3 2 2 2 2 2 2 2 2 2 2 2 2 2 2 2 2 2
2 2 2 2 2 2 2 2 1 1 1 2 2 2 2 1 1 0 1 1 1 1 1 1 1 1 2 2 2 1 1 1 2 2 2 2 2 2 2 2 2 2 2 3
1 2 2 1 1 1 2 2 2 2 2 2 1 1 1 0 0 1 1 1 1 1 0 1 2 3 2 1 1 1 2 2 2 2 2 2 2 2 2 1 2 2 3 3
1 2 1 1 1 2 2 2 2 1 1 1 1 0 0 0 0 0 0 1 0 0 0 0 0 1 0 1 1 2 1 1 1 2 2 2 2 2 2 2 3 2 2 2
1 1 1 2 2 2 1 1 0 1 1 1 1 1 0 0 1 1 1 0 1 1 1 1 1 1 1 2 2 2 2 2 2 2 2 2 2 2 2 3 2 3 3 3
Wind_Direction
276 276 265 264 266 267 261 268 269 275 249 195 150 134 114 96 92 90 93 100 101 101 109 119 124 134 142 139 129 131 140 157 164 174 178 203 220 236 230 239 255 261 260 267
267 272 274 271 273 269 268 266 258 255 233 146 147 117 113 119 114 109 105 102 97 90 104 117 117 131 152 153 140 136 153 161 176 180 189 213 216 225 232 237 247 249 258 271
265 266 274 267 266 265 265 269 269 264 141 88 83 99 122 117 112 99 95 102 109 119 121 128 116 107 242 151 130 143 160 178 200 198 205 229 244 239 243 240 248 262 266 259
267 263 260 266 290 291 283 286 296 319 18 59 63 75 97 109 103 89 82 90 94 93 77 112 110 109 146 135 140 127 121 79 247 228 254 258 259 254 257 264 265 251 248 248
270 267 262 256 263 274 280 294 334 346 56 55 41 101 100 94 95 84 71 70 85 77 62 80 91 82 74 100 120 123 122 291 293 276 268 265 264 251 244 250 255 250 261 256
258 264 267 265 281 293 270 238 1 28 50 59 35 348 97 83 84 78 69 62 71 66 56 65 67 78 85 292 67 11 304 289 284 275 273 270 268 273 269 259 256 258 257 265
252 259 267 325 310 268 269 4 27 26 51 63 66 52 81 80 73 70 66 63 65 71 76 76 73 80 59 351 1 337 315 300 288 285 284 274 292 312 287 270 268 263 259 254
249 253 260 13 342 34 67 41 37 18 31 49 80 94 87 78 66 55 53 52 44 53 60 67 75 78 58 12 1 350 337 316 308 301 291 305 320 280 265 262 260 254 255 261
291 291 41 36 47 63 72 36 16 19 40 53 61 84 84 80 72 50 39 38 25 36 63 62 58 47 12 3 344 326 312 306 305 301 302 314 280 276 266 265 271 275 267 277
288 300 7 26 37 38 15 13 352 26 51 33 52 71 76 75 66 46 22 21 25 28 32 35 45 38 14 2 339 310 296 294 283 272 282 307 298 281 277 283 289 296 300 302
287 330 331 348 5 348 356 10 12 35 28 14 52 68 60 67 72 64 39 3 21 24 14 13 11 26 13 357 340 317 299 290 287 285 287 299 298 303 290 298 271 281 307 313
317 348 305 336 346 351 359 19 23 23 25 21 33 46 49 59 64 55 34 28 28 29 33 24 12 8 9 2 352 321 298 290 290 288 284 273 270 313 356 319 229 185 191 250
328 321 334 354 351 350 353 348 357 7 6 5 23 29 24 72 82 58 23 14 16 17 37 20 11 2 3 360 339 321 310 301 295 294 287 277 270 267 297 345 356 332 259 253
353 345 340 340 344 338 325 324 335 331 353 32 16 11 359 49 80 58 14 348 354 1 48 4 353 7 348 333 313 307 304 300 301 309 309 300 295 286 277 273 282 292 265 236
317 309 308 321 318 315 316 311 308 309 327 343 322 312 326 15 329 321 329 328 20 358 357 319 313 304 311 299 282 287 301 320 325 315 306 308 309 303 305 300 283 271 298 274
298 294 299 302 298 297 292 290 287 282 293 293 298 317 328 317 296 283 299 312 205 280 297 287 290 301 304 310 304 290 279 286 295 303 311 318 321 326 328 313 284 289 315 340
282 280 285 290 287 284 287 288 292 298 294 294 297 309 325 335 318 311 331 350 337 297 261 254 286 292 276 289 303 301 313 312 284 307 328 335 335 333 333 330 338 352 14 27
261 266 269 279 287 288 291 296 306 308 308 310 308 320 334 340 353 357 354 3 0 359 17 30 33 357 328 355 325 305 313 326 328 342 350 350 344 340 339 347 358 11 15 10
256 259 260 265 278 289 292 306 318 325 326 328 322 321 316 35 49 13 348 347 343 344 21 41 36 347 338 13 340 299 307 323 336 349 345 339 328 336 342 351 350 354 360 7
264 266 257 259 261 265 279 298 305 317 331 5 359 2 22 50 43 5 357 352 350 359 14 34 37 7 339 12 339 309 314 327 332 333 334 331 335 343 349 354 356 357 15 19
289 292 304 313 323 321 305 290 289 288 305 306 301 313 349 352 342 334 328 343 38 36 5 101 79 5 356 352 303 303 320 330 338 338 336 342 338 344 355 351 357 4 10 7
318 349 326 319 312 322 326 298 269 266 273 286 298 307 295 285 296 333 11 327 355 43 314 8 37 42 10 324 310 323 322 327 339 342 343 345 346 353 0 2 3 359 354 355
335 336 316 303 293 304 302 284 264 248 251 275 274 273 278 288 311 319 326 338 360 64 40 40 49 40 337 303 311 313 322 336 348 339 334 337 343 350 354 358 355 351 344 335
321 314 304 296 298 278 273 277 263 261 263 257 238 233 253 268 287 310 8 44 38 90 17 106 149 236 276 286 304 316 336 355 358 347 342 345 349 356 2 359 346 338 330 328
291 287 277 263 262 262 253 247 227 234 257 257 235 197 213 209 278 339 346 349 111 135 292 168 214 246 254 300 333 353 359 358 353 340 347 351 354 353 350 339 337 338 338 342
276 263 265 265 259 247 236 233 238 233 239 260 284 335 15 45 19 327 302 293 352 117 320 316 181 219 293 347 4 2 1 359 336 336 347 349 355 351 340 335 339 349 357 3
251 236 231 243 241 248 267 271 298 304 298 296 309 341 354 360 8 359 343 344 1 14 25 26 17 6 20 16 7 2 2 5 356 348 348 349 355 359 350 352 4 10 9 8